Location: Crescent
(42.8242°N, 73.7329°W)
Time: 07:19:11
(UTC+00:00)

Transit 4A - Pass Details

Date: 25 February 2026
Orbit: 864 x 977 km, 66.8° (Epoch: 9 March)

Event Time Altitude Azimuth Distance (km) Brightness Sun altitude
Rises 08:19:58 0° 246° (WSW) 3,467 - -36.3°
Reaches altitude 10° 08:22:48 10° 259° (WSW) 2,546 - -35.8°
Maximum altitude 08:27:46 27° 316° (NW) 1,655 - -35.0°
Exits shadow 08:30:34 20° 356° (N) 2,005 9.7 -34.5°
Drops below altitude 10° 08:32:52 10° 13° (NNE) 2,620 10.6 -34.1°
Sets 08:35:51 0° 26° (NNE) 3,587 11.6 -33.6°
